Zurück zum Katalog

STARLINK-37714

AktivKommunikationVLEO
NORAD 100040·PAYLOAD·🇺🇸 United States

Gestartet Jul 14, 2026 von Cape Canaveral Space Force Station

Loading…

Nächste Überflüge (nächste 24 Stunden)

TLE

AktuellSource: Space-Track

Epoche: Sep 14, 2026, 08:59 UTC

1 A0040U 26161N   26257.37453458  .00010380  00000-0  30799-3 0  9994
2 A0040  53.1607  26.0941 0001024  78.1305 281.9812 15.35406046  9678

Verfolge STARLINK-37714 in Echtzeit mit AllMySat

Download on the App Store